Regional Weather Roundup
Issued by NWS

Home | Current Version | Previous Version | Text Only | Print | Product List | Glossary On
Versions: 1 2 3 4 5 6 7 8 9 10 11 12 13 14 15 16 17 18 19 20 21 22 23 24 25 26 27 28 29 30 31 32 33 34 35 36 37 38 39 40 41 42 43 44
000
ASUS43 KDMX 021507
RWRIA

WEATHER ROUNDUP FOR IOWA
NATIONAL WEATHER SERVICE DES MOINES IA
1000 AM CDT THU OCT 02 2014

NOTE: "FAIR" INDICATES FEW OR NO CLOUDS BELOW 12,000 FEET WITH NO
SIGNIFICANT WEATHER AND/OR OBSTRUCTIONS TO VISIBILITY.

* - THESE STATIONS ARE NOT NWS STATIONS...THUS NOT UNDER NWS
QUALITY CONTROL.  THEY ALSO DO NOT REPORT WEATHER SUCH
AS PRECIPITATION OR FOG.

IAZ001>003-012>014-020>022-031>034-043>046-021600-
   NORTHWEST IOWA

CITY           SKY/WX    TMP DP  RH WIND       PRES   REMARKS
CARROLL *      PTSUNNY   61  61 100 CALM      29.80R FOG
CHEROKEE *     CLOUDY    55  55 100 N10       29.84R
DENISON *      CLOUDY    59  59 100 N6        29.80R
LE MARS *      CLOUDY    55  54  94 N10       29.87R
ORANGE CITY *  LGT RAIN  55  52  88 N10       29.87S
SHELDON *      LGT RAIN  54  54 100 NW6       29.88R
SIOUX CITY     LGT RAIN  56  54  93 N15G22    29.85F
SPENCER        LGT RAIN  54  52  93 N15G24    29.84F
STORM LAKE *   CLOUDY    55  55 100 N15       29.83S
$$

IAZ055>058-069>071-079>083-090>094-021600-
   SOUTHWEST IOWA

CITY           SKY/WX    TMP DP  RH WIND       PRES   REMARKS
ATLANTIC *     PTSUNNY   63  63 100 N5        29.78R FOG
AUDUBON *      DRIZZLE   63  57  82 N3        29.79S
CLARINDA *     CLOUDY    64  64 100 E5        29.76F FOG
COUNCIL BLFS * CLOUDY    57  57 100 NW14      29.81R FOG
CRESTON *      CLOUDY    63  63 100 SE8       29.78R FOG
HARLAN  *      CLOUDY    63  63 100 N6        29.82S FOG
LAMONI         LGT RAIN  65  63  93 SE8       29.77R
RED OAK *      CLOUDY    64  64 100 N5        29.79R
SHENANDOAH *   CLOUDY    64  64 100 NW7       29.79R
$$

IAZ047>049-059>061-072>074-084-021600-
   CENTRAL IOWA

CITY           SKY/WX    TMP DP  RH WIND       PRES   REMARKS
AMES           FOG       63  63 100 E5        29.77F VSB 1/4
ANKENY *       CLOUDY    64  64 100 CALM      29.77R FOG
CHARITON *     CLOUDY    64  64 100 SE7       29.77S FOG
DES MOINES     CLOUDY    65  63  93 SE6       29.76F FOG
GRINNELL*      CLOUDY    64  63  94 SE7       29.80F FOG
KNOXVILLE *    CLOUDY    64  63  94 SE9       29.76F FOG
MARSHALLTOWN   CLOUDY    64  64 100 SE7       29.78F FOG
PELLA *        FOG       64  64 100 SE7       29.78F VSB 1/2
PERRY *        DRZL/FOG  64  64 100 CALM      29.79R VSB 3/4
$$

IAZ004>006-015-016-023>025-035-036-021600-
   NORTH CENTRAL IOWA

CITY           SKY/WX    TMP DP  RH WIND       PRES   REMARKS
ALGONA *       FOG       61  61 100 CALM      29.83R VSB 1
CLARION *      CLOUDY    64  64 100 VRB5      29.79F
ESTHERVILLE    TSTM      52  52 100 NW14      29.86R FOG
FORT DODGE *   CLOUDY    63  61  94 CALM      29.81S
MASON CITY     CLOUDY    61  61 100 CALM      29.82S FOG
FOREST CITY *  DRIZZLE   61  61 100 CALM      29.82R
IOWA FALLS *   CLOUDY    63  63 100 E3        29.79F FOG
$$

IAZ007>011-017>019-026>030-037>042-050>054-066-021600-
   NORTHEAST IOWA

CITY           SKY/WX    TMP DP  RH WIND       PRES   REMARKS
CHARLES CITY * CLOUDY    64  61  88 E6        29.80F FOG
CLINTON *        N/A     68  63  83 S7        29.85S
DECORAH *      CLOUDY    63  61  94 E5        29.81F FOG
MONTICELLO *   CLOUDY    68  64  88 SE5       29.80F
OELWEIN *      FOG       63  63 100 E5        29.81F VSB 1/2
WATERLOO       CLOUDY    63  63 100 E8        29.79F FOG
$$

IAZ064-065-067-068-078-021600-
   EAST CENTRAL IOWA

CITY           SKY/WX    TMP DP  RH WIND       PRES   REMARKS
IOWA CITY        N/A     67  64  90 S5        29.82F
MT. PLEASANT * CLOUDY    66  64  94 SE5       29.81S FOG
MUSCATINE *    CLOUDY    66  64  94 SE6       29.83S
QUAD CITIES    PTSUNNY   66  64  93 SE8       29.83S
$$

IAZ062-063-075>077-085>089-095>099-021600-
   SOUTHEAST IOWA

CITY           SKY/WX    TMP DP  RH WIND       PRES   REMARKS
BURLINGTON       N/A     64  64 100 S5        29.82F
FAIRFIELD *      N/A     66  64  94 SE8       29.81S
FORT MADISON * PTSUNNY   64  64 100 S5        29.83S
KEOKUK *       CLOUDY    64  64 100 CALM      29.83R
OSKALOOSA *    CLOUDY    64  64 100 SE7       29.79F
CENTERVILLE *  CLOUDY    64  64 100 SE9       29.80S
OTTUMWA        CLOUDY    64  63  96 S6        29.78S
WASHINGTON *   PTSUNNY   64  64 100 SE7       29.81S FOG
$$

ABBREVIATIONS USED IN REMARKS
   TC - TEMPERATURES IN CELSIUS
  WCI - WIND CHILL INDEX
   HX - HEAT INDEX
  VSB - VISIBILITY
$$




USA.gov is the U.S. government's official web portal to all federal, state and local government web resources and services.